Location: Cormont
(50.5693°N, 1.7416°E)
Time: 18:53:46
(UTC+00:00)

STARLINK-59 - Pass Details

Date: 21 October 2019
Orbit: 548 x 551 km, 53.0° (Epoch: 18 November)

Event Time Altitude Azimuth Distance (km) Brightness Sun altitude
Rises 17:22:34 0° 264° (W) 2,715 10.0 -5.9°
Reaches altitude 10° 17:24:49 10° 267° (W) 1,823 8.1 -6.3°
Maximum altitude 17:28:57 67° 350° (N) 601 3.8 -6.9°
Drops below altitude 10° 17:33:05 10° 74° (ENE) 1,827 5.6 -7.6°
Enters shadow 17:33:11 - 74° (ENE) 1,868 5.7 -7.6°
